STARLINK-2649 (48680 NORAD) Tracking and Keplerian Element Data

This shows tracking and keplerian element data for the satellite.

Feedback or suggestion? Click here.




ElementValue
Catalog48680
NameSTARLINK-2649
Epoch Orbit364
Epoch Day210.91668981
Epoch Year2021
RAAN110.7554
Inclination53.0463
Eccentricity0.0001509
Argument of Perigee70.895
Mean Anonmoly138.5116
Mean Motion15.21388089
Decay Rate-0.00930906
L11 48680U 21044AU 21210.91668981 -.00930906 00000-0 -44263-1 0 9990
L22 48680 53.0463 110.7554 0001509 70.8950 138.5116 15.21388089 3649

Live tracking and technical data element details for STARLINK-2649 (NORAD 48680). STARLINK-2649 can be tracked NOW for your location showing map with azimuth and elevation plus other details from your city location.

Track the satellite on the map from your city or location and see movement details for azimuth, elevation, latitude, longitude, range, height, and movement on the map or in text.







IsCatalogInMostPopularTable: catalog: 48680, numindb: 17
Update: records affected: 1



GetName: 48680 STARLINK-2649

Hit Count: updated at: Sat, 31 Jul 2021 14:26:58 GMT